SV2BZQ-2 Thessalonik GR current weather conditions

sailwx.info

Wind from 283

Air temperature 6.1° C
Dewpoint 5.4° C

Last reported at 2014-Dec-18 23:47 UTC.
Time now 2014-Dec-19 00:35 UTC

Location: N 40°41' E 022°51'.
View on Google Maps.

See reports from other nearby stations

  
Tides and Currents Weather Stations Pressure Air Temp Water Temp Dewpoint Dewpoint Depression Visibility Wind Speed Wind Dir Waves Ship Positions
date/time (UTC)wind fromknots sea level pressurealtimeterstation pressurevisibilityair tempwater tempwave heightnotes
2014-Dec-18 23:47 283 6.1
2014-Dec-18 23:33 283 1 gusting 4 6.1
2014-Dec-18 23:17 292 5.6
2014-Dec-18 23:01 292 0 gusting 3 6.1
2014-Dec-18 22:45 292 6.1
2014-Dec-18 22:30 291 6.1
2014-Dec-18 22:14 292 6.1
2014-Dec-18 21:59 292 6.7
2014-Dec-18 21:44 291 1 gusting 3 6.7
2014-Dec-18 21:28 291 6.7
2014-Dec-18 21:12 292 6.7
2014-Dec-18 20:57 292 1 gusting 3 7.2
2014-Dec-18 20:41 292 7.2
2014-Dec-18 20:25 291 7.2
2014-Dec-18 20:10 291 0 gusting 3 7.2
2014-Dec-18 19:54 290 0 gusting 3 7.8
2014-Dec-18 19:40 309 2 gusting 4 7.8
2014-Dec-18 19:29 312 2 gusting 1 8.3
2014-Dec-18 19:24 350 0 gusting 4 7.8
2014-Dec-18 19:19 345 1 gusting 2 8.3
2014-Dec-18 19:09 305 1 gusting 2 8.3
2014-Dec-18 18:59 304 1 gusting 2 8.3
2014-Dec-18 18:52 304 0 gusting 3 8.3
2014-Dec-18 18:49 304 8.3
2014-Dec-18 18:39 306 8.9
2014-Dec-18 18:29 306 8.9
2014-Dec-18 18:21 306 8.3
2014-Dec-18 18:09 305 8.9
2014-Dec-18 18:06 305 8.9
2014-Dec-18 17:59 305 9.4
2014-Dec-18 17:50 304 8.9
2014-Dec-18 17:39 304 9.4
2014-Dec-18 17:35 304 9.4
2014-Dec-18 17:29 304 9.4
2014-Dec-18 17:20 304 9.4
2014-Dec-18 17:09 304 10.0
2014-Dec-18 17:04 304 10.0
2014-Dec-18 16:59 304 10.0
2014-Dec-18 16:49 304 10.6
2014-Dec-18 16:39 304 0 gusting 2 10.6
2014-Dec-18 16:33 303 1 gusting 3 10.6
2014-Dec-18 16:29 304 0 gusting 2 10.6
2014-Dec-18 16:19 303 10.6
2014-Dec-18 16:09 304 1 gusting 2 11.1
2014-Dec-18 16:02 302 0 gusting 2 11.1
2014-Dec-18 15:59 300 0 gusting 1 11.1
2014-Dec-18 15:49 300 11.1
2014-Dec-18 15:46 300 1 gusting 3 11.1
2014-Dec-18 15:39 300 0 gusting 1 11.7
2014-Dec-18 15:32 302 1 gusting 4 11.1
2014-Dec-18 15:29 304 2 gusting 2 11.7
2014-Dec-18 15:19 304 0 gusting 1 11.7
2014-Dec-18 15:16 305 11.7
2014-Dec-18 15:09 311 2 gusting 2 11.7
2014-Dec-18 15:00 301 2 gusting 4 11.7
2014-Dec-18 14:49 299 12.2
2014-Dec-18 14:44 300 0 gusting 4 12.2
2014-Dec-18 14:39 299 1 gusting 2 12.2
2014-Dec-18 14:29 292 2 gusting 2 12.2
2014-Dec-18 14:19 292 0 gusting 2 12.2
2014-Dec-18 14:13 301 2 gusting 5 12.2
2014-Dec-18 14:09 289 0 gusting 2 12.2
2014-Dec-18 13:59 294 12.2
2014-Dec-18 13:49 302 2 gusting 6 12.2
2014-Dec-18 13:42 303 2 gusting 6 12.2
2014-Dec-18 13:39 281 1 gusting 2 12.2
2014-Dec-18 13:29 255 0 gusting 1 12.2
2014-Dec-18 13:19 254 0 gusting 1 12.2
2014-Dec-18 13:12 252 11.7
2014-Dec-18 13:09 252 12.2
2014-Dec-18 12:59 252 11.7
2014-Dec-18 12:49 252 0 gusting 2 11.7
2014-Dec-18 12:40 250 1 gusting 4 11.7
2014-Dec-18 12:29 217 11.7
2014-Dec-18 12:25 217 11.1
2014-Dec-18 12:19 215 0 gusting 2 11.7
2014-Dec-18 12:09 215 1 gusting 2 11.7
2014-Dec-18 11:59 110 0 gusting 2 11.1
2014-Dec-18 11:54 109 10.6
2014-Dec-18 11:49 109 11.1
2014-Dec-18 11:39 109 10.6
2014-Dec-18 11:29 110 0 gusting 2 10.6
2014-Dec-18 11:24 111 0 gusting 5 10.6
2014-Dec-18 11:19 084 10.6
2014-Dec-18 11:09 033 10.6
2014-Dec-18 10:59 031 10.6
2014-Dec-18 10:52 338 0 gusting 7 10.0
2014-Dec-18 10:49 332 4 gusting 5 10.6
2014-Dec-18 10:39 271 5 gusting 5 10.0
2014-Dec-18 10:36 263 4 gusting 7 10.0
2014-Dec-18 10:29 297 4 gusting 4 10.0
2014-Dec-18 10:20 261 3 gusting 7 9.4
2014-Dec-18 10:09 298 2 gusting 5 9.4
2014-Dec-18 10:05 290 5 gusting 8 9.4
2014-Dec-18 09:59 276 6 gusting 7 9.4
2014-Dec-18 09:49 287 2 gusting 6 9.4
2014-Dec-18 09:39 302 4 gusting 2 9.4
2014-Dec-18 09:35 274 4 gusting 6 8.9
2014-Dec-18 09:29 299 1 gusting 2 9.4
2014-Dec-18 09:19 269 2 gusting 5 9.4
2014-Dec-18 09:09 268 8.9
2014-Dec-18 09:02 268 0 gusting 3 8.3
2014-Dec-18 08:59 268 1 gusting 2 8.9
2014-Dec-18 08:49 279 1 gusting 2 8.3
2014-Dec-18 08:39 280 1 gusting 1 8.3
2014-Dec-18 08:32 283 1 gusting 3 8.3
2014-Dec-18 08:29 283 1 gusting 2 8.3
2014-Dec-18 08:19 284 1 gusting 2 8.3
2014-Dec-18 08:16 275 1 gusting 5 7.8
2014-Dec-18 08:09 277 0 gusting 2 8.3
2014-Dec-18 08:01 296 1 gusting 4 7.8
2014-Dec-18 07:49 294 2 gusting 2 7.8
2014-Dec-18 07:45 297 1 gusting 4 7.8
2014-Dec-18 07:39 254 7.8
2014-Dec-18 07:29 254 7.8
2014-Dec-18 07:19 254 7.8
2014-Dec-18 07:15 254 7.2
2014-Dec-18 07:09 254 7.8
2014-Dec-18 06:59 254 7.8
2014-Dec-18 06:49 254 0 7.8
2014-Dec-18 06:44 253 7.8
2014-Dec-18 05:49 284 1 gusting 2 7.8
2014-Dec-18 05:42 285 7.8
2014-Dec-18 05:39 285 1 gusting 1 7.8
2014-Dec-18 05:29 288 1 gusting 0 7.8
2014-Dec-18 05:25 288 7.2
2014-Dec-18 05:19 288 0 gusting 0 7.8
2014-Dec-18 05:10 287 7.8
2014-Dec-18 04:59 325 2 gusting 2 8.3
2014-Dec-18 04:54 325 7.8
2014-Dec-18 04:49 325 8.3
2014-Dec-18 04:39 284 0 gusting 2 8.3
2014-Dec-18 04:29 266 0 gusting 2 8.3
2014-Dec-18 04:24 266 7.8
2014-Dec-18 04:19 266 8.3
2014-Dec-18 04:09 266 0 gusting 1 8.3
2014-Dec-18 03:59 265 8.3
2014-Dec-18 03:52 266 1 gusting 5 7.8
2014-Dec-18 03:49 267 1 gusting 2 8.3
2014-Dec-18 03:39 279 1 gusting 2 8.3
2014-Dec-18 03:29 015 0 gusting 1 8.3
2014-Dec-18 03:21 015 8.3
2014-Dec-18 03:09 016 0 gusting 2 8.3
2014-Dec-18 03:06 015 8.3
2014-Dec-18 02:59 010 1 gusting 2 8.3
2014-Dec-18 02:50 284 8.3
2014-Dec-18 02:39 248 1 gusting 2 8.3
2014-Dec-18 02:36 244 0 gusting 2 8.3
2014-Dec-18 02:29 244 8.3
2014-Dec-18 02:20 244 8.3
2014-Dec-18 02:09 244 8.3
2014-Dec-18 02:04 244 8.3
2014-Dec-18 01:59 244 8.3
2014-Dec-18 01:49 244 8.3
2014-Dec-18 01:39 244 0 gusting 0 8.3
2014-Dec-18 01:32 244 7.8
2014-Dec-18 01:29 244 8.3
2014-Dec-18 01:19 244 8.3
2014-Dec-18 01:09 244 8.3
2014-Dec-18 01:01 244 7.8
2014-Dec-18 00:49 244 7.8
2014-Dec-18 00:46 244 7.8
2014-Dec-18 00:39 244 7.8
2014-Dec-18 00:30 244 7.8
2014-Dec-18 00:19 244 7.8
2014-Dec-18 00:16 244 7.2
2014-Dec-18 00:09 244 7.8
2014-Dec-18 00:00 244 7.2
2014-Dec-17 23:49 244 7.8
2014-Dec-17 23:44 244 7.8
2014-Dec-17 23:39 244 7.8
2014-Dec-17 23:29 244 7.8
2014-Dec-17 23:19 244 7.8
2014-Dec-17 23:16 244 7.8
2014-Dec-17 23:09 244 7.8
2014-Dec-17 22:59 244 7.8
2014-Dec-17 22:49 244 7.8
2014-Dec-17 22:42 244 7.2
2014-Dec-17 22:39 244 7.8
2014-Dec-17 22:29 244 7.8
2014-Dec-17 22:26 244 7.8
2014-Dec-17 22:19 244 8.3
2014-Dec-17 22:12 244 7.8
2014-Dec-17 22:09 244 8.3
2014-Dec-17 21:59 242 8.3
2014-Dec-17 21:56 242 0 gusting 1 8.3
2014-Dec-17 21:49 242 8.3
2014-Dec-17 21:40 242 8.3
2014-Dec-17 21:29 242 8.9
2014-Dec-17 21:24 242 8.3
2014-Dec-17 21:19 242 8.9
2014-Dec-17 21:10 242 8.9
2014-Dec-17 20:59 242 8.9
2014-Dec-17 20:53 242 8.9
2014-Dec-17 20:49 242 8.9
2014-Dec-17 20:39 242 8.9
2014-Dec-17 20:29 242 8.9
2014-Dec-17 20:22 242 8.9
2014-Dec-17 20:19 242 8.9
2014-Dec-17 20:09 242 0 gusting 1 8.9
2014-Dec-17 20:06 242 8.9
2014-Dec-17 19:59 242 8.9
2014-Dec-17 19:52 242 8.9
2014-Dec-17 19:49 242 9.4
2014-Dec-17 19:39 224 0 gusting 2 9.4
2014-Dec-17 19:35 223 8.9
2014-Dec-17 19:29 218 1 gusting 2 9.4
2014-Dec-17 19:20 209 0 gusting 3 8.9
2014-Dec-17 19:09 208 9.4
2014-Dec-17 19:05 208 9.4
2014-Dec-17 18:59 208 9.4
2014-Dec-17 18:49 207 9.4
2014-Dec-17 18:39 207 10.0
2014-Dec-17 18:33 207 9.4
2014-Dec-17 18:29 207 10.0
2014-Dec-17 18:19 207 10.0
2014-Dec-17 18:09 204 0 gusting 2 10.0
2014-Dec-17 18:02 202 9.4
2014-Dec-17 17:59 202 10.0
2014-Dec-17 17:49 202 10.0
2014-Dec-17 17:39 202 0 10.0
2014-Dec-17 17:32 202 0 gusting 2 10.0
2014-Dec-17 17:29 202 10.0
2014-Dec-17 17:19 200 10.0
2014-Dec-17 17:16 200 10.0
2014-Dec-17 17:09 200 10.0
2014-Dec-17 17:00 200 10.0
2014-Dec-17 16:49 199 10.0
2014-Dec-17 16:45 200 10.0
2014-Dec-17 16:39 200 10.0
2014-Dec-17 16:29 199 1 gusting 4 10.0
2014-Dec-17 16:19 244 1 gusting 2 10.6
2014-Dec-17 16:14 254 2 gusting 5 10.0
2014-Dec-17 16:09 261 10.6
2014-Dec-17 15:59 261 10.6
2014-Dec-17 15:49 261 10.6
2014-Dec-17 15:45 261 10.0
2014-Dec-17 15:39 261 10.6
2014-Dec-17 15:29 261 10.6
2014-Dec-17 15:19 257 0 gusting 0 10.6
2014-Dec-17 15:12 257 10.6
2014-Dec-17 15:09 257 10.6
2014-Dec-17 14:59 257 10.6
2014-Dec-17 14:56 257 10.6
2014-Dec-17 14:49 257 10.6
2014-Dec-17 14:41 257 10.6
2014-Dec-17 14:29 239 10.6
2014-Dec-17 14:25 239 10.6
2014-Dec-17 14:19 239 0 10.6
2014-Dec-17 14:10 239 10.6
2014-Dec-17 13:59 238 10.6
2014-Dec-17 13:55 239 10.6
2014-Dec-17 13:49 238 10.6
2014-Dec-17 13:40 239 10.6
2014-Dec-17 13:29 240 10.6
2014-Dec-17 13:24 240 10.6
2014-Dec-17 13:19 239 1 gusting 1 10.6
2014-Dec-17 13:09 253 2 gusting 2 11.1
2014-Dec-17 12:59 098 11.1
2014-Dec-17 12:53 098 10.6
2014-Dec-17 12:49 098 10.6
2014-Dec-17 12:39 098 10.6
2014-Dec-17 12:36 098 10.6
2014-Dec-17 12:29 098 10.6
2014-Dec-17 12:21 098 10.6
2014-Dec-17 12:09 098 10.6
2014-Dec-17 12:05 098 10.0
2014-Dec-17 11:59 098 10.6
2014-Dec-17 11:52 098 0 gusting 1 10.6
2014-Dec-17 11:50 098 10.0
2014-Dec-17 11:43 098 10.6
2014-Dec-17 11:39 098 10.6
2014-Dec-17 11:35 098 10.0
2014-Dec-17 11:29 098 10.6
2014-Dec-17 11:22 098 10.0
2014-Dec-17 11:20 098 10.0
2014-Dec-17 11:11 098 10.0
2014-Dec-17 11:09 098 10.0
2014-Dec-17 11:04 098 10.0
2014-Dec-17 10:59 098 10.0
2014-Dec-17 10:51 098 10.0
2014-Dec-17 10:49 098 1 gusting 1 10.0
2014-Dec-17 10:41 045 2 gusting 2 9.4
2014-Dec-17 10:32 309 1 gusting 3 9.4
2014-Dec-17 10:30 308 9.4
2014-Dec-17 10:20 243 0 gusting 2 9.4
2014-Dec-17 10:10 242 0 gusting 1 9.4
2014-Dec-17 10:01 226 9.4
2014-Dec-17 09:50 226 0 gusting 1 9.4
2014-Dec-17 09:45 226 9.4
2014-Dec-17 09:40 222 0 gusting 2 9.4
2014-Dec-17 09:30 253 0 gusting 0 9.4
2014-Dec-17 09:20 156 0 gusting 1 9.4
2014-Dec-17 09:14 155 8.9
2014-Dec-17 09:10 155 9.4
2014-Dec-17 09:00 155 9.4
2014-Dec-17 08:50 155 8.9
2014-Dec-17 08:44 155 8.9
2014-Dec-17 08:40 155 8.9
2014-Dec-17 08:30 153 0 gusting 2 8.9
2014-Dec-17 08:20 153 8.9
2014-Dec-17 08:12 153 8.9
2014-Dec-17 08:10 153 8.9
2014-Dec-17 08:00 153 8.9
2014-Dec-17 07:50 153 8.9
2014-Dec-17 07:41 153 8.3
2014-Dec-17 07:30 153 8.9
2014-Dec-17 07:26 152 8.3
2014-Dec-17 07:20 153 8.9
2014-Dec-17 07:10 153 8.9
2014-Dec-17 07:00 153 0 gusting 2 8.9
2014-Dec-17 06:56 155 0 gusting 4 8.3
2014-Dec-17 06:50 190 8.9
2014-Dec-17 06:40 238 8.9
2014-Dec-17 06:30 239 8.3
2014-Dec-17 06:24 239 8.3
2014-Dec-17 06:20 239 8.3
2014-Dec-17 06:10 239 8.3
2014-Dec-17 06:00 239 8.3
2014-Dec-17 05:53 239 8.3
2014-Dec-17 05:50 239 8.3
2014-Dec-17 05:40 239 8.3
2014-Dec-17 05:30 239 8.3
2014-Dec-17 05:22 239 1 gusting 3 8.3
2014-Dec-17 05:20 240 1 gusting 2 8.3
2014-Dec-17 05:10 240 0 gusting 2 8.3
2014-Dec-17 05:06 240 8.3
2014-Dec-17 05:00 240 8.3
2014-Dec-17 04:52 240 8.3
2014-Dec-17 04:50 239 1 gusting 2 8.3
2014-Dec-17 04:40 235 0 gusting 2 8.3
2014-Dec-17 04:36 231 8.3
2014-Dec-17 04:30 230 8.3
2014-Dec-17 04:20 229 0 gusting 1 8.3
2014-Dec-17 04:10 228 8.3
2014-Dec-17 04:04 230 1 gusting 3 8.3
2014-Dec-17 04:00 231 0 gusting 2 8.3
2014-Dec-17 03:50 232 8.3
2014-Dec-17 03:40 232 8.3
2014-Dec-17 03:33 232 1 gusting 2 8.3
2014-Dec-17 03:30 232 8.3
2014-Dec-17 03:20 232 8.3
2014-Dec-17 03:10 232 8.3
2014-Dec-17 03:00 232 8.3
2014-Dec-17 02:50 232 8.3
2014-Dec-17 02:46 232 8.3
2014-Dec-17 02:40 232 8.3
2014-Dec-17 02:32 232 8.3
2014-Dec-17 02:30 232 8.3
2014-Dec-17 02:20 232 8.3
2014-Dec-17 02:16 232 8.3
2014-Dec-17 02:10 232 8.3
2014-Dec-17 02:00 232 8.3
2014-Dec-17 01:50 232 8.3
2014-Dec-17 01:45 232 8.3
2014-Dec-17 01:40 232 8.3
2014-Dec-17 01:30 232 8.3
2014-Dec-17 01:20 232 8.3
2014-Dec-17 01:13 232 8.3
2014-Dec-17 01:10 232 8.3
2014-Dec-17 01:00 232 8.3
2014-Dec-17 00:50 232 8.3
2014-Dec-17 00:42 232 8.3
2014-Dec-17 00:40 232 8.3
2014-Dec-17 00:30 232 8.3
2014-Dec-17 00:26 232 8.3
2014-Dec-17 00:20 232 8.3
2014-Dec-17 00:12 232 8.3
2014-Dec-17 00:10 232 8.3
2014-Dec-17 00:00 232 8.3